Home > Weather > Minot > Past weeks

Flag for U.S.A. Weather for the Past 2 Weeks in Minot, North Dakota, U.S.A.

Now
15 °F

Mostly cloudy.


Feels Like: 6 °F
Forecast: 14 / 22 °F
Wind: 6 mph from Northeast

Location: Minot International Airport

Current Time: Feb 11, 2016 at 5:30:41 AM

Latest Report: Feb 11, 2016 at 4:54 AM


Visibility: 10 mi

Pressure: 30.24 "Hg

Humidity: 67%

Dew point: 6 °F

Location of MinotLocation

Historic Weather in Minot — Graph

°F

Minot Temperature Yesterday

Maximum temperature yesterday: 20 °F (at 2:54 AM)
Minimum temperature yesterday: 13 °F (at 7:54 PM)
Average temperature yesterday: 17 °F

High & Low Weather Summary for the Past Weeks

 TemperatureHumidityPressure
High51 °F (Feb 6, 12:54 PM)79% (Feb 1, 8:54 PM)30.36 "Hg (Feb 1, 8:54 PM)
Low13 °F (Feb 10, 7:54 PM)38% (Feb 6, 12:54 PM)29.38 "Hg (Jan 29, 4:54 AM)
Average31 °F63%29.94 "Hg
* Reported Jan 27 3:54 AM — Feb 11 3:54 AM, Minot, Weather by CustomWeather, © 2016

Note: Actual official high and low records may vary slightly from our data, if they occured in-between our weather recording intervals... More about our weather records

Advertising

Minot Weather History for the Previous 24 Hours

 ConditionsComfort  
Time TempWeatherWind HumidityBarometerVisibility
3:54 AM
Thu, Feb 11
15 °FOvercast.No wind67%30.25 "Hg10 mi
2:54 AM15 °FOvercast.No wind67%30.26 "Hg10 mi
1:54 AM14 °FOvercast.No wind71%30.27 "Hg10 mi
12:54 AM14 °FOvercast.6 mph71%30.28 "Hg10 mi
11:54 PM
Wed, Feb 10
13 °FOvercast.3 mph74%30.28 "Hg10 mi
11:02 PM13 °FMostly cloudy.6 mph70%30.18 "Hg8 mi
9:54 PM13 °FMostly cloudy.No wind70%30.31 "Hg10 mi
8:54 PM13 °FOvercast.3 mph70%30.31 "Hg10 mi
7:54 PM13 °FOvercast.3 mph74%30.32 "Hg10 mi
6:54 PM14 °FOvercast.6 mph67%30.29 "Hg8 mi
5:54 PM14 °FMostly cloudy.5 mph71%30.27 "Hg5 mi
4:54 PM15 °FOvercast.5 mph67%30.25 "Hg5 mi
3:54 PM16 °FLight snow. Overcast.8 mph67%30.23 "Hg2 mi
2:54 PM17 °FOvercast.8 mph64%30.20 "Hg6 mi
1:54 PM17 °FOvercast.5 mph64%30.17 "Hg7 mi
12:54 PM18 °FOvercast.8 mph65%30.14 "Hg6 mi
11:54 AM17 °FOvercast.6 mph68%30.12 "Hg5 mi
10:54 AM18 °FOvercast.9 mph65%30.06 "Hg5 mi
9:54 AM17 °FOvercast.10 mph68%30.03 "Hg10 mi
8:54 AM17 °FOvercast.12 mph70%30.01 "Hg10 mi
7:54 AM17 °FMostly cloudy.12 mph70%29.98 "Hg10 mi
6:54 AM18 °FOvercast.12 mph71%29.96 "Hg10 mi
5:54 AM19 °FOvercast.13 mph74%29.95 "Hg10 mi
Weather by CustomWeather, © 2016

See weather overviewHow to use our weather pages